User: anonymous   Login
Location: Kawakawa
(35.3830°S, 174.0670°E)
Time: 13:16:26
(UTC+13:00)
Language:

BREEZE-M DEB (TANK) - Orbit

View from above orbital plane
View from above orbital plane
View from above satellite
View from above satellite

Ground track
Ground track

The orbit data is extracted from the following two-line orbital elements,

1 36794U 10034C   20292.76143586 +.00001245 +00000-0 +35718-3 0  9991
2 36794 049.5030 227.2019 5514812 334.9843 006.1599 04.76144807175649
Epoch (UTC): 18 October 2020 18:16:28
Eccentricity: 0.5514812
inclination: 49.5030°
perigee height: 316 km
apogee height: 16777 km
right ascension of ascending node: 227.2019°
argument of perigee: 334.9843°
revolutions per day: 4.76144807
mean anomaly at epoch: 6.1599°
orbit number at epoch: 17564

The dashed part of the orbit path shows where the satellite is in the earth's shadow,  

DLR